Change the Weather History Date:

Thursday, July 18, 2013

  Actual Average Record
Temperature  
Mean Temperature 84 °F -  
Max Temperature 92 °F - - ()
Min Temperature 77 °F - - ()
Cooling Degree Days 20    
Growing Degree Days 34 (Base 50)    
Moisture  
Dew Point 71 °F    
Average Humidity 65    
Maximum Humidity 84    
Minimum Humidity 42    
Precipitation  
Precipitation 0.00 in - - ()
Sea Level Pressure  
Sea Level Pressure 29.99 in    
Wind  
Wind Speed 5 mph ()    
Max Wind Speed 9 mph    
Max Gust Speed -    
T = Trace of Precipitation, MM = Missing Value Source: Averaged Metar Reports

Daily Weather History Graph

Daily Weather History Graph

Search for Another Location

Airport or City:

Trip Planner

Search our weather history database for the weather conditions in past years. The results will help you decide how hot, cold, wet, or windy it might be!

Date:

Astronomy

Jul. 18, 2013 Rise Set
Actual Time 5:54 AM EDT 8:52 PM EDT
Civil Twilight 5:20 AM EDT 9:26 PM EDT
Nautical Twilight 4:37 AM EDT 10:09 PM EDT
Astronomical Twilight 3:46 AM EDT 11:00 PM EDT
Moon 4:47 PM EDT (7/18) 1:45 AM EDT (7/18)
Length of Visible Light 16h 06m
Length of Day
14h 58m
Waxing Gibbous, 77% of the Moon is Illuminated
Jul 18
Waxing Gibbous
Jul 22
Full
Jul 29
Last Quarter
Aug 6
New
Aug 14
First Quarter

Hourly Weather History & Observations

Time (EDT) Temp. Heat Index Dew Point Humidity Pressure Visibility Wind Dir Wind Speed Gust Speed Precip Events Conditions
12:00 AM 80.2 °F 83.9 °F 71.4 °F 74% 30.05 in - SW 3.5 mph - N/A   Unknown
1:00 AM 80.4 °F 84.5 °F 72.1 °F 76% 30.06 in - WSW 5.8 mph - N/A   Unknown
2:00 AM 80 °F - 73 °F 73% 30.04 in - WSW 5.8 mph - -  
2:00 AM 79.5 °F - 72.9 °F 80% 30.04 in - WSW 5.8 mph - N/A   Unknown
3:00 AM 78.3 °F - 73.0 °F 84% 30.04 in - West 5.8 mph - N/A   Unknown
4:00 AM 78.1 °F - 72.3 °F 82% 30.04 in - West 5.8 mph - N/A   Unknown
5:00 AM 78.1 °F - 72.0 °F 81% 30.03 in - West 4.6 mph - N/A   Unknown
6:00 AM 78.1 °F - 72.0 °F 81% 30.03 in - WSW 5.8 mph - N/A   Unknown
7:00 AM 78.8 °F - 72.9 °F 82% 30.04 in - WSW 3.5 mph - N/A   Unknown
8:00 AM 81 °F - 73 °F 72% 30.04 in - WSW 3.5 mph - -  
8:00 AM 80.6 °F 85.4 °F 73.4 °F 79% 30.04 in - WSW 3.5 mph - N/A   Unknown
9:00 AM 83.3 °F 89.3 °F 72.9 °F 71% 30.04 in - SW 4.6 mph - N/A   Unknown
10:00 AM 87.1 °F 92.4 °F 70.7 °F 58% 30.03 in - WSW 3.5 mph - N/A   Unknown
11:00 AM 88.7 °F 91.9 °F 67.3 °F 49% 30.02 in - North 2.3 mph - N/A   Unknown
12:00 PM 89.2 °F 92.0 °F 66.7 °F 47% 30.02 in - NNE 3.5 mph - N/A   Unknown
1:00 PM 88.3 °F 91.6 °F 67.3 °F 50% 30.00 in - NE 3.5 mph - N/A   Unknown
2:00 PM 91.0 °F 97.1 °F 70.3 °F 51% 29.97 in - NE 1.2 mph - N/A   Unknown
3:00 PM 90.9 °F 95.3 °F 68.7 °F 48% 29.95 in - NNW 2.3 mph - N/A   Unknown
4:00 PM 91.0 °F 100.4 °F 73.8 °F 57% 29.94 in - West 6.9 mph - N/A   Unknown
5:00 PM 92.3 °F 97.6 °F 69.4 °F 47% 29.92 in - WNW 6.9 mph - N/A   Unknown
6:00 PM 90.5 °F 96.5 °F 70.9 °F 52% 29.91 in - WNW 5.8 mph - N/A   Unknown
7:00 PM 91.9 °F 94.5 °F 66.0 °F 42% 29.91 in - West 8.1 mph - N/A   Unknown
8:00 PM 87 °F - 73 °F 54% 29.90 in - SW 9.2 mph - -  
8:00 PM 86.5 °F 93.8 °F 72.9 °F 64% 29.90 in - SW 9.2 mph - N/A   Unknown
9:00 PM 84.6 °F 90.3 °F 72.1 °F 66% 29.88 in - WSW 9.2 mph - N/A   Unknown
10:00 PM 82.2 °F 87.3 °F 72.5 °F 72% 29.89 in - SW 9.2 mph - N/A   Unknown
11:00 PM 80.4 °F 84.5 °F 72.3 °F 76% 29.89 in - SW 9.2 mph - N/A   Unknown